Time,TemperatureF,DewpointF,PressureIn,WindDirection,WindDirectionDegrees,WindSpeedMPH,WindSpeedGustMPH,Humidity,HourlyPrecipIn,Conditions,Clouds,dailyrainin,SoftwareType,DateUTC
2013-07-02 00:01:00,66.0,64.0,29.83,North,0,0.0,0.0,94,0.00,,,0.18,,2013-07-02 05:01:00,
2013-07-02 00:11:00,66.0,64.0,29.83,WNW,292,0.0,1.0,94,0.00,,,0.18,,2013-07-02 05:11:00,
2013-07-02 00:22:00,66.0,64.0,29.83,WNW,292,0.0,1.0,94,0.00,,,0.18,,2013-07-02 05:22:00,
2013-07-02 00:32:00,66.0,64.0,29.83,WNW,292,0.0,1.0,94,0.00,,,0.18,,2013-07-02 05:32:00,
2013-07-02 00:43:00,66.0,64.0,29.83,WNW,292,0.0,1.0,94,0.00,,,0.18,,2013-07-02 05:43:00,
2013-07-02 00:53:00,66.0,64.0,29.83,WNW,290,0.0,1.0,94,0.00,,,0.18,,2013-07-02 05:53:00,
2013-07-02 01:01:00,66.0,64.0,29.82,WNW,292,0.0,1.0,94,0.00,,,0.18,,2013-07-02 06:01:00,
2013-07-02 01:12:00,66.0,64.0,29.82,WNW,300,0.0,1.0,94,0.00,,,0.18,,2013-07-02 06:12:00,
2013-07-02 01:23:00,66.0,65.0,29.82,North,0,0.0,0.0,95,0.00,,,0.18,,2013-07-02 06:23:00,
2013-07-02 01:34:00,66.0,65.0,29.82,North,0,0.0,0.0,95,0.00,,,0.18,,2013-07-02 06:34:00,
2013-07-02 01:43:00,66.0,65.0,29.82,NNW,346,0.0,1.0,95,0.00,,,0.18,,2013-07-02 06:43:00,
2013-07-02 01:53:00,66.0,65.0,29.82,NNW,347,0.0,1.0,95,0.00,,,0.18,,2013-07-02 06:53:00,
2013-07-02 02:01:00,66.0,65.0,29.82,North,0,0.0,0.0,96,0.00,,,0.18,,2013-07-02 07:01:00,
2013-07-02 02:12:00,66.0,65.0,29.82,North,0,0.0,0.0,96,0.00,,,0.18,,2013-07-02 07:12:00,
2013-07-02 02:22:00,66.0,65.0,29.82,North,0,0.0,0.0,96,0.00,,,0.18,,2013-07-02 07:22:00,
2013-07-02 02:34:00,66.0,65.0,29.82,North,0,0.0,0.0,96,0.00,,,0.18,,2013-07-02 07:34:00,
2013-07-02 02:44:00,66.0,65.0,29.82,North,0,0.0,0.0,96,0.00,,,0.18,,2013-07-02 07:44:00,
2013-07-02 02:53:00,65.0,64.0,29.81,North,0,0.0,0.0,96,0.00,,,0.18,,2013-07-02 07:53:00,
2013-07-02 03:02:00,65.0,64.0,29.81,North,0,0.0,0.0,96,0.00,,,0.18,,2013-07-02 08:02:00,
2013-07-02 03:12:00,66.0,65.0,29.81,North,0,0.0,0.0,96,0.00,,,0.18,,2013-07-02 08:12:00,
2013-07-02 03:22:00,65.0,64.0,29.81,North,0,0.0,0.0,96,0.00,,,0.18,,2013-07-02 08:22:00,
2013-07-02 03:33:00,66.0,65.0,29.80,North,0,0.0,0.0,97,0.00,,,0.18,,2013-07-02 08:33:00,
2013-07-02 03:44:00,66.0,65.0,29.80,North,0,0.0,0.0,97,0.00,,,0.18,,2013-07-02 08:44:00,
2013-07-02 03:53:00,65.0,64.0,29.80,North,0,0.0,0.0,97,0.00,,,0.18,,2013-07-02 08:53:00,
2013-07-02 04:02:00,65.0,64.0,29.80,North,0,0.0,0.0,97,0.00,,,0.18,,2013-07-02 09:02:00,
2013-07-02 04:11:00,65.0,64.0,29.80,North,0,0.0,0.0,97,0.00,,,0.18,,2013-07-02 09:11:00,
2013-07-02 04:23:00,65.0,64.0,29.81,North,0,0.0,0.0,97,0.00,,,0.18,,2013-07-02 09:23:00,
2013-07-02 04:33:00,65.0,64.0,29.81,North,0,0.0,0.0,97,0.00,,,0.18,,2013-07-02 09:33:00,
2013-07-02 04:43:00,65.0,64.0,29.81,North,0,0.0,0.0,97,0.00,,,0.18,,2013-07-02 09:43:00,
2013-07-02 04:52:00,65.0,64.0,29.81,North,0,0.0,0.0,97,0.00,,,0.18,,2013-07-02 09:52:00,
2013-07-02 05:01:00,65.0,64.0,29.81,West,273,0.0,1.0,97,0.00,,,0.18,,2013-07-02 10:01:00,
2013-07-02 05:11:00,65.0,64.0,29.82,West,274,0.0,1.0,97,0.00,,,0.18,,2013-07-02 10:11:00,
2013-07-02 05:22:00,65.0,64.0,29.82,North,0,0.0,0.0,97,0.00,,,0.18,,2013-07-02 10:22:00,
2013-07-02 05:33:00,65.0,64.0,29.82,North,0,0.0,0.0,97,0.00,,,0.18,,2013-07-02 10:33:00,
2013-07-02 05:44:00,65.0,64.0,29.83,North,0,0.0,0.0,97,0.00,,,0.18,,2013-07-02 10:44:00,
2013-07-02 05:52:00,65.0,64.0,29.83,North,0,0.0,0.0,97,0.00,,,0.18,,2013-07-02 10:52:00,
2013-07-02 06:01:00,65.0,64.0,29.83,North,0,0.0,0.0,97,0.00,,,0.18,,2013-07-02 11:01:00,
2013-07-02 06:11:00,65.0,64.0,29.83,North,0,0.0,0.0,97,0.00,,,0.18,,2013-07-02 11:11:00,
2013-07-02 06:22:00,65.0,64.0,29.84,North,0,0.0,0.0,97,0.00,,,0.18,,2013-07-02 11:22:00,
2013-07-02 06:33:00,65.0,64.0,29.84,North,0,0.0,0.0,97,0.00,,,0.18,,2013-07-02 11:33:00,
2013-07-02 06:42:00,65.0,65.0,29.84,North,0,0.0,0.0,100,0.00,,,0.18,,2013-07-02 11:42:00,
2013-07-02 06:52:00,65.0,65.0,29.85,North,0,0.0,0.0,100,0.00,,,0.18,,2013-07-02 11:52:00,
2013-07-02 07:01:00,65.0,65.0,29.85,West,279,0.0,1.0,100,0.00,,,0.18,,2013-07-02 12:01:00,
2013-07-02 07:11:00,65.0,65.0,29.85,West,280,0.0,1.0,100,0.00,,,0.18,,2013-07-02 12:11:00,
2013-07-02 07:23:00,65.0,65.0,29.85,West,264,0.0,2.0,100,0.00,,,0.18,,2013-07-02 12:23:00,
2013-07-02 07:33:00,65.0,65.0,29.86,West,265,0.0,2.0,100,0.00,,,0.18,,2013-07-02 12:33:00,
2013-07-02 07:43:00,65.0,64.0,29.86,West,273,0.0,2.0,97,0.00,,,0.18,,2013-07-02 12:43:00,
2013-07-02 07:52:00,65.0,64.0,29.86,West,264,0.0,3.0,97,0.00,,,0.18,,2013-07-02 12:52:00,
2013-07-02 08:01:00,65.0,64.0,29.87,West,259,0.0,6.0,97,0.00,,,0.18,,2013-07-02 13:01:00,
2013-07-02 08:11:00,65.0,64.0,29.87,West,260,0.0,4.0,97,0.00,,,0.18,,2013-07-02 13:11:00,
2013-07-02 08:22:00,66.0,65.0,29.87,West,261,0.0,3.0,97,0.00,,,0.18,,2013-07-02 13:22:00,
2013-07-02 08:34:00,66.0,65.0,29.87,WSW,252,1.0,6.0,96,0.00,,,0.18,,2013-07-02 13:34:00,
2013-07-02 08:43:00,66.0,65.0,29.87,SW,236,0.0,4.0,95,0.00,,,0.18,,2013-07-02 13:43:00,
2013-07-02 08:52:00,67.0,65.0,29.87,WSW,247,1.0,7.0,93,0.00,,,0.17,,2013-07-02 13:52:00,
2013-07-02 09:02:00,67.0,64.0,29.87,West,260,1.0,9.0,90,0.00,,,0.15,,2013-07-02 14:02:00,
2013-07-02 09:11:00,67.0,64.0,29.87,West,264,1.0,7.0,89,0.00,,,0.15,,2013-07-02 14:11:00,
2013-07-02 09:22:00,67.0,64.0,29.88,West,261,1.0,7.0,89,0.00,,,0.14,,2013-07-02 14:22:00,
2013-07-02 09:33:00,67.0,64.0,29.88,WSW,255,0.0,5.0,89,0.00,,,0.12,,2013-07-02 14:33:00,
2013-07-02 09:43:00,67.0,63.0,29.88,WSW,255,1.0,8.0,87,0.00,,,0.11,,2013-07-02 14:43:00,
2013-07-02 09:53:00,68.0,64.0,29.88,West,261,1.0,6.0,87,0.00,,,0.10,,2013-07-02 14:53:00,
2013-07-02 10:02:00,68.0,64.0,29.88,West,262,1.0,9.0,86,0.00,,,0.10,,2013-07-02 15:02:00,
2013-07-02 10:11:00,68.0,64.0,29.88,West,262,1.0,9.0,86,0.00,,,0.10,,2013-07-02 15:11:00,
2013-07-02 10:22:00,68.0,64.0,29.88,SW,226,0.0,5.0,86,0.00,,,0.09,,2013-07-02 15:22:00,
2013-07-02 10:33:00,69.0,64.0,29.88,WSW,243,2.0,10.0,84,0.00,,,0.09,,2013-07-02 15:33:00,
2013-07-02 10:44:00,69.0,64.0,29.88,West,270,1.0,5.0,83,0.00,,,0.07,,2013-07-02 15:44:00,
2013-07-02 10:53:00,69.0,64.0,29.88,SW,236,1.0,8.0,83,0.00,,,0.07,,2013-07-02 15:53:00,
2013-07-02 11:01:00,70.0,65.0,29.88,SW,236,1.0,6.0,83,0.00,,,0.05,,2013-07-02 16:01:00,
2013-07-02 11:12:00,70.0,64.0,29.88,WSW,241,1.0,8.0,80,0.00,,,0.05,,2013-07-02 16:12:00,
2013-07-02 11:22:00,70.0,64.0,29.89,WSW,252,1.0,8.0,81,0.00,,,0.05,,2013-07-02 16:22:00,
2013-07-02 11:33:00,70.0,64.0,29.89,WSW,257,2.0,11.0,81,0.00,,,0.05,,2013-07-02 16:33:00,
2013-07-02 11:43:00,70.0,64.0,29.89,SW,227,1.0,7.0,82,0.00,,,0.03,,2013-07-02 16:43:00,
2013-07-02 11:52:00,71.0,64.0,29.89,SW,231,2.0,9.0,79,0.00,,,0.03,,2013-07-02 16:52:00,
2013-07-02 12:02:00,71.0,64.0,29.89,SW,236,4.0,11.0,78,0.00,,,0.03,,2013-07-02 17:02:00,
2013-07-02 12:11:00,71.0,63.0,29.89,SW,229,2.0,7.0,77,0.00,,,0.03,,2013-07-02 17:11:00,
2013-07-02 12:33:00,71.0,64.0,29.90,WSW,251,1.0,6.0,79,0.00,,,0.02,,2013-07-02 17:33:00,
2013-07-02 12:43:00,71.0,64.0,29.90,SW,229,2.0,8.0,79,0.00,,,0.02,,2013-07-02 17:43:00,
2013-07-02 12:53:00,72.0,64.0,29.90,SW,236,2.0,7.0,75,0.00,,,0.02,,2013-07-02 17:53:00,
2013-07-02 13:02:00,73.0,65.0,29.90,WSW,238,2.0,8.0,75,0.00,,,0.02,,2013-07-02 18:02:00,
2013-07-02 13:12:00,73.0,64.0,29.90,WSW,243,3.0,10.0,73,0.00,,,0.01,,2013-07-02 18:12:00,
2013-07-02 13:23:00,73.0,64.0,29.90,WSW,248,4.0,12.0,73,0.00,,,0.01,,2013-07-02 18:23:00,
2013-07-02 13:34:00,73.0,64.0,29.90,WSW,251,4.0,12.0,73,0.00,,,0.01,,2013-07-02 18:34:00,
2013-07-02 13:43:00,73.0,63.0,29.89,West,274,3.0,11.0,72,0.00,,,0.01,,2013-07-02 18:43:00,
2013-07-02 13:53:00,73.0,63.0,29.89,West,274,3.0,11.0,72,0.00,,,0.01,,2013-07-02 18:53:00,
2013-07-02 14:01:00,73.0,63.0,29.89,West,262,3.0,12.0,72,0.00,,,0.01,,2013-07-02 19:01:00,
2013-07-02 14:12:00,72.0,63.0,29.90,West,269,4.0,10.0,74,0.00,,,0.01,,2013-07-02 19:12:00,
2013-07-02 14:22:00,72.0,64.0,29.90,West,263,2.0,10.0,75,0.00,,,0.01,,2013-07-02 19:22:00,
2013-07-02 14:34:00,72.0,64.0,29.90,West,261,2.0,8.0,76,0.00,,,0.01,,2013-07-02 19:34:00,
2013-07-02 14:43:00,73.0,65.0,29.89,West,260,2.0,11.0,75,0.00,,,0.01,,2013-07-02 19:43:00,
2013-07-02 14:53:00,74.0,64.0,29.89,West,270,4.0,13.0,71,0.00,,,0.01,,2013-07-02 19:53:00,
2013-07-02 15:02:00,75.0,64.0,29.89,West,264,2.0,8.0,69,0.00,,,0.00,,2013-07-02 20:02:00,
2013-07-02 15:11:00,75.0,65.0,29.89,West,265,3.0,11.0,70,0.00,,,0.00,,2013-07-02 20:11:00,
2013-07-02 15:22:00,75.0,65.0,29.89,West,267,2.0,8.0,71,0.00,,,0.00,,2013-07-02 20:22:00,
2013-07-02 15:33:00,75.0,64.0,29.89,West,266,3.0,10.0,69,0.00,,,0.00,,2013-07-02 20:33:00,
2013-07-02 15:43:00,75.0,64.0,29.89,West,276,3.0,11.0,69,0.00,,,0.00,,2013-07-02 20:43:00,
2013-07-02 15:52:00,75.0,65.0,29.89,West,263,3.0,10.0,72,0.00,,,0.00,,2013-07-02 20:52:00,
2013-07-02 16:02:00,75.0,62.0,29.90,West,272,3.0,8.0,65,0.00,,,0.00,,2013-07-02 21:02:00,
2013-07-02 16:11:00,74.0,63.0,29.90,West,280,2.0,7.0,68,0.00,,,0.00,,2013-07-02 21:11:00,
2013-07-02 16:22:00,75.0,65.0,29.90,West,281,1.0,6.0,71,0.00,,,0.00,,2013-07-02 21:22:00,
2013-07-02 16:33:00,75.0,64.0,29.89,West,277,2.0,8.0,69,0.00,,,0.00,,2013-07-02 21:33:00,
2013-07-02 16:44:00,75.0,65.0,29.89,West,259,4.0,11.0,70,0.00,,,0.00,,2013-07-02 21:44:00,
2013-07-02 16:52:00,74.0,64.0,29.89,West,269,2.0,11.0,70,0.00,,,0.00,,2013-07-02 21:52:00,
2013-07-02 17:01:00,74.0,64.0,29.90,WSW,257,2.0,7.0,72,0.00,,,0.00,,2013-07-02 22:01:00,
2013-07-02 17:11:00,75.0,64.0,29.90,WNW,290,0.0,5.0,68,0.00,,,0.00,,2013-07-02 22:11:00,
2013-07-02 17:22:00,76.0,64.0,29.89,West,268,2.0,10.0,66,0.00,,,0.00,,2013-07-02 22:22:00,
2013-07-02 17:34:00,76.0,63.0,29.90,West,274,1.0,6.0,65,0.00,,,0.00,,2013-07-02 22:34:00,
2013-07-02 17:43:00,75.0,63.0,29.90,WSW,240,2.0,13.0,67,0.00,,,0.00,,2013-07-02 22:43:00,
2013-07-02 17:53:00,75.0,64.0,29.90,West,277,1.0,11.0,68,0.00,,,0.00,,2013-07-02 22:53:00,
2013-07-02 18:01:00,75.0,65.0,29.90,West,272,0.0,5.0,70,0.00,,,0.00,,2013-07-02 23:01:00,
2013-07-02 18:11:00,75.0,64.0,29.90,West,261,0.0,5.0,68,0.00,,,0.00,,2013-07-02 23:11:00,
2013-07-02 18:33:00,75.0,64.0,29.90,West,274,0.0,3.0,68,0.00,,,0.00,,2013-07-02 23:33:00,
2013-07-02 18:44:00,75.0,64.0,29.90,West,274,0.0,3.0,68,0.00,,,0.00,,2013-07-02 23:44:00,
2013-07-02 18:52:00,75.0,64.0,29.90,WNW,285,1.0,5.0,68,0.00,,,0.00,,2013-07-02 23:52:00,
2013-07-02 19:01:00,75.0,63.0,29.90,WNW,288,1.0,5.0,67,0.00,,,0.00,,2013-07-03 00:01:00,
2013-07-02 19:11:00,75.0,64.0,29.91,WNW,301,1.0,4.0,68,0.00,,,0.00,,2013-07-03 00:11:00,
2013-07-02 19:22:00,74.0,63.0,29.91,WNW,283,0.0,5.0,69,0.00,,,0.00,,2013-07-03 00:22:00,
2013-07-02 19:33:00,74.0,64.0,29.91,WNW,284,0.0,3.0,71,0.00,,,0.00,,2013-07-03 00:33:00,
2013-07-02 19:44:00,73.0,63.0,29.91,West,278,0.0,1.0,72,0.00,,,0.00,,2013-07-03 00:44:00,
2013-07-02 19:52:00,73.0,64.0,29.92,West,276,0.0,3.0,73,0.00,,,0.00,,2013-07-03 00:52:00,
2013-07-02 20:01:00,72.0,63.0,29.92,West,276,0.0,1.0,74,0.00,,,0.00,,2013-07-03 01:01:00,
2013-07-02 20:11:00,72.0,64.0,29.92,West,275,0.0,3.0,75,0.00,,,0.00,,2013-07-03 01:11:00,
2013-07-02 20:22:00,71.0,63.0,29.93,North,0,0.0,0.0,76,0.00,,,0.00,,2013-07-03 01:22:00,
2013-07-02 20:33:00,71.0,63.0,29.93,North,0,0.0,0.0,76,0.00,,,0.00,,2013-07-03 01:33:00,
2013-07-02 20:42:00,70.0,63.0,29.93,North,0,0.0,0.0,79,0.00,,,0.00,,2013-07-03 01:42:00,
2013-07-02 21:14:00,69.0,63.0,29.94,North,0,0.0,0.0,82,0.00,,,0.00,,2013-07-03 02:14:00,
2013-07-02 21:39:00,67.0,63.0,29.95,North,0,0.0,0.0,86,0.00,,,0.00,,2013-07-03 02:39:00,
2013-07-02 21:44:00,66.0,62.0,29.95,North,0,0.0,0.0,87,0.00,,,0.00,,2013-07-03 02:44:00,
2013-07-02 21:55:00,66.0,62.0,29.95,North,0,0.0,0.0,87,0.00,,,0.00,,2013-07-03 02:55:00,
2013-07-02 22:04:00,66.0,62.0,29.96,North,0,0.0,0.0,88,0.00,,,0.00,,2013-07-03 03:04:00,
2013-07-02 22:13:00,66.0,63.0,29.96,North,0,0.0,0.0,89,0.00,,,0.00,,2013-07-03 03:13:00,
2013-07-02 22:25:00,65.0,62.0,29.96,North,0,0.0,0.0,89,0.00,,,0.00,,2013-07-03 03:25:00,
2013-07-02 22:35:00,65.0,62.0,29.96,North,0,0.0,0.0,89,0.00,,,0.00,,2013-07-03 03:35:00,
2013-07-02 22:56:00,64.0,61.0,29.96,North,0,0.0,0.0,90,0.00,,,0.00,,2013-07-03 03:56:00,
2013-07-02 23:01:00,64.0,61.0,29.96,North,0,0.0,0.0,91,0.00,,,0.00,,2013-07-03 04:01:00,
2013-07-02 23:11:00,64.0,61.0,29.96,North,0,0.0,0.0,91,0.00,,,0.00,,2013-07-03 04:11:00,
2013-07-02 23:22:00,64.0,61.0,29.96,North,0,0.0,0.0,91,0.00,,,0.00,,2013-07-03 04:22:00,
2013-07-02 23:33:00,63.0,61.0,29.96,North,0,0.0,0.0,92,0.00,,,0.00,,2013-07-03 04:33:00,
2013-07-02 23:43:00,63.0,61.0,29.96,North,0,0.0,0.0,92,0.00,,,0.00,,2013-07-03 04:43:00,
2013-07-02 23:52:00,63.0,61.0,29.96,North,0,0.0,0.0,92,0.00,,,0.00,,2013-07-03 04:52:00,